Location: Béaulencourt
(50.0796°N, 2.8795°E)
Time: 23:34:44
(UTC+00:00)

IGS 5A - Pass Details

Date: 20 January 2026
Orbit: 551 x 554 km, 97.4° (Epoch: 8 January)

Event Time Altitude Azimuth Distance (km) Brightness Sun altitude
Rises 05:39:34 0° 14° (NNE) 2,741 6.9 -18.4°
Reaches altitude 10° 05:41:43 10° 16° (NNE) 1,842 6.1 -18.1°
Maximum altitude 05:45:42 75° 103° (ESE) 579 3.5 -17.4°
Drops below altitude 10° 05:49:39 10° 188° (S) 1,827 6.0 -16.8°
Sets 05:51:47 0° 190° (S) 2,716 6.9 -16.5°
